| time (UTC) | temp F | wind direction | speed MPH | gust MPH | rain 1hr in | rain 24hr in | rain mn in | humidity % | barometer mb |
| 20260510235008 | 70 | 339 | 1.0 | 8.0 | 0.00 | 0.00 | 0.00 | 28 | 1021.8 |
| 20260510234518 | 70 | 312 | 4.0 | 8.0 | 0.00 | 0.00 | 0.00 | 28 | 1021.8 |
| 20260510234006 | 71 | 40 | 4.0 | 8.0 | 0.00 | 0.00 | 0.00 | 28 | 1021.7 |
| 20260510233512 | 71 | 22 | 2.0 | 7.0 | 0.00 | 0.00 | 0.00 | 27 | 1021.8 |
| 20260510233029 | 71 | 55 | 3.0 | 6.0 | 0.00 | 0.00 | 0.00 | 27 | 1021.8 |
| 20260510232506 | 71 | 22 | 1.0 | 8.0 | 0.00 | 0.00 | 0.00 | 27 | 1021.9 |
| 20260510232008 | 71 | 32 | 3.0 | 7.0 | 0.00 | 0.00 | 0.00 | 27 | 1021.9 |
| 20260510231526 | 72 | 82 | 3.0 | 7.0 | 0.00 | 0.00 | 0.00 | 27 | 1022.0 |
| 20260510231011 | 72 | 34 | 3.0 | 6.0 | 0.00 | 0.00 | 0.00 | 25 | 1021.9 |
| 20260510230507 | 72 | 79 | 1.0 | 9.0 | 0.00 | 0.00 | 0.00 | 28 | 1021.9 |
| 20260510230016 | 72 | 26 | 3.0 | 9.0 | 0.00 | 0.00 | 0.00 | 26 | 1021.8 |
| 20260510225510 | 71 | 42 | 5.0 | 9.0 | 0.00 | 0.00 | 0.00 | 25 | 1021.8 |
| 20260510225009 | 71 | 34 | 3.0 | 10.0 | 0.00 | 0.00 | 0.00 | 26 | 1021.8 |
| 20260510224520 | 72 | 124 | 1.0 | 11.0 | 0.00 | 0.00 | 0.00 | 26 | 1021.8 |
| 20260510224012 | 72 | 62 | 6.0 | 11.0 | 0.00 | 0.00 | 0.00 | 26 | 1021.8 |
| 20260510223502 | 72 | 42 | 4.0 | 8.0 | 0.00 | 0.00 | 0.00 | 25 | 1021.7 |
| 20260510223007 | 72 | 36 | 3.0 | 9.0 | 0.00 | 0.00 | 0.00 | 25 | 1021.8 |
| 20260510222506 | 71 | 34 | 2.0 | 9.0 | 0.00 | 0.00 | 0.00 | 26 | 1021.9 |
| 20260510222006 | 71 | 64 | 5.0 | 12.0 | 0.00 | 0.00 | 0.00 | 25 | 1022.0 |
| 20260510221522 | 71 | 63 | 3.0 | 12.0 | 0.00 | 0.00 | 0.00 | 25 | 1022.0 |
| 20260510221007 | 71 | 15 | 4.0 | 11.0 | 0.00 | 0.00 | 0.00 | 24 | 1022.0 |
| 20260510220507 | 72 | 70 | 6.0 | 12.0 | 0.00 | 0.00 | 0.00 | 25 | 1022.1 |
| 20260510220019 | 72 | 72 | 4.0 | 12.0 | 0.00 | 0.00 | 0.00 | 24 | 1022.2 |
| 20260510215508 | 72 | 57 | 4.0 | 12.0 | 0.00 | 0.00 | 0.00 | 26 | 1022.3 |
| 20260510215008 | 72 | 46 | 8.0 | 12.0 | 0.00 | 0.00 | 0.00 | 24 | 1022.4 |
| 20260510214519 | 72 | 39 | 5.0 | 13.0 | 0.00 | 0.00 | 0.00 | 25 | 1022.3 |
| 20260510214004 | 72 | 334 | 4.0 | 13.0 | 0.00 | 0.00 | 0.00 | 26 | 1022.3 |
| 20260510213505 | 71 | 42 | 3.0 | 9.0 | 0.00 | 0.00 | 0.00 | 28 | 1022.3 |
| 20260510213009 | 71 | 63 | 2.0 | 5.0 | 0.00 | 0.00 | 0.00 | 26 | 1022.4 |
| 20260510212503 | 70 | 306 | 3.0 | 5.0 | 0.00 | 0.00 | 0.00 | 27 | 1022.4 |
| 20260510212010 | 70 | 44 | 3.0 | 9.0 | 0.00 | 0.00 | 0.00 | 26 | 1022.4 |
| 20260510211516 | 71 | 68 | 4.0 | 9.0 | 0.00 | 0.00 | 0.00 | 25 | 1022.6 |
| 20260510211009 | 71 | 324 | 4.0 | 12.0 | 0.00 | 0.00 | 0.00 | 26 | 1022.6 |
| 20260510210508 | 71 | 44 | 4.0 | 12.0 | 0.00 | 0.00 | 0.00 | 27 | 1022.7 |
| 20260510210023 | 71 | 351 | 6.0 | 11.0 | 0.00 | 0.00 | 0.00 | 27 | 1022.7 |
| 20260510205508 | 70 | 314 | 4.0 | 10.0 | 0.00 | 0.00 | 0.00 | 27 | 1022.7 |
| 20260510205009 | 70 | 329 | 4.0 | 12.0 | 0.00 | 0.00 | 0.00 | 28 | 1022.7 |
| 20260510204522 | 70 | 42 | 3.0 | 12.0 | 0.00 | 0.00 | 0.00 | 29 | 1022.7 |
| 20260510204004 | 69 | 329 | 5.0 | 14.0 | 0.00 | 0.00 | 0.00 | 27 | 1022.7 |
| 20260510203504 | 70 | 26 | 4.0 | 17.0 | 0.00 | 0.00 | 0.00 | 27 | 1022.8 |
| 20260510203012 | 70 | 57 | 9.0 | 17.0 | 0.00 | 0.00 | 0.00 | 26 | 1022.8 |
| 20260510202506 | 71 | 352 | 6.0 | 10.0 | 0.00 | 0.00 | 0.00 | 26 | 1022.7 |
| 20260510202009 | 71 | 332 | 3.0 | 14.0 | 0.00 | 0.00 | 0.00 | 25 | 1022.6 |
| 20260510201519 | 71 | 360 | 8.0 | 14.0 | 0.00 | 0.00 | 0.00 | 28 | 1022.6 |
| 20260510201007 | 71 | 9 | 4.0 | 11.0 | 0.00 | 0.00 | 0.00 | 27 | 1022.5 |
| 20260510200510 | 70 | 325 | 5.0 | 10.0 | 0.00 | 0.00 | 0.00 | 27 | 1022.5 |
| 20260510200022 | 70 | 83 | 2.0 | 11.0 | 0.00 | 0.00 | 0.00 | 29 | 1022.5 |
| 20260510195508 | 70 | 75 | 5.0 | 12.0 | 0.00 | 0.00 | 0.00 | 30 | 1022.5 |
| 20260510195010 | 70 | 60 | 6.0 | 12.0 | 0.00 | 0.00 | 0.00 | 28 | 1022.6 |
| 20260510194508 | 70 | 63 | 6.0 | 12.0 | 0.00 | 0.00 | 0.00 | 27 | 1022.7 |
| 20260510194004 | 70 | 71 | 6.0 | 10.0 | 0.00 | 0.00 | 0.00 | 29 | 1022.8 |
| 20260510193506 | 70 | 42 | 3.0 | 8.0 | 0.00 | 0.00 | 0.00 | 29 | 1022.7 |
| 20260510193016 | 70 | 352 | 4.0 | 9.0 | 0.00 | 0.00 | 0.00 | 27 | 1023.0 |
| 20260510192507 | 69 | 23 | 4.0 | 13.0 | 0.00 | 0.00 | 0.00 | 27 | 1023.1 |
| 20260510192010 | 69 | 76 | 8.0 | 13.0 | 0.00 | 0.00 | 0.00 | 26 | 1023.2 |
| 20260510191521 | 69 | 42 | 5.0 | 14.0 | 0.00 | 0.00 | 0.00 | 28 | 1023.2 |
| 20260510191008 | 69 | 109 | 5.0 | 14.0 | 0.00 | 0.00 | 0.00 | 29 | 1023.2 |
| 20260510190509 | 69 | 26 | 4.0 | 11.0 | 0.00 | 0.00 | 0.00 | 31 | 1023.3 |
| 20260510190026 | 69 | 36 | 6.0 | 12.0 | 0.00 | 0.00 | 0.00 | 29 | 1023.3 |
| 20260510185512 | 68 | 70 | 5.0 | 15.0 | 0.00 | 0.00 | 0.00 | 28 | 1023.3 |
| 20260510185006 | 68 | 65 | 5.0 | 15.0 | 0.00 | 0.00 | 0.00 | 29 | 1023.4 |
| 20260510184511 | 68 | 65 | 4.0 | 12.0 | 0.00 | 0.00 | 0.00 | 30 | 1023.4 |
| 20260510184010 | 68 | 72 | 5.0 | 12.0 | 0.00 | 0.00 | 0.00 | 30 | 1023.4 |
| 20260510183511 | 68 | 60 | 4.0 | 15.0 | 0.00 | 0.00 | 0.00 | 28 | 1023.5 |
| 20260510183020 | 68 | 65 | 5.0 | 15.0 | 0.00 | 0.00 | 0.00 | 29 | 1023.4 |
| 20260510182510 | 68 | 57 | 4.0 | 14.0 | 0.00 | 0.00 | 0.00 | 32 | 1023.4 |
| 20260510182011 | 68 | 298 | 6.0 | 14.0 | 0.00 | 0.00 | 0.00 | 31 | 1023.4 |
| 20260510181525 | 68 | 78 | 4.0 | 15.0 | 0.00 | 0.00 | 0.00 | 34 | 1023.4 |
| 20260510181007 | 67 | 67 | 6.0 | 15.0 | 0.00 | 0.00 | 0.00 | 30 | 1023.5 |
| 20260510180508 | 67 | 34 | 4.0 | 13.0 | 0.00 | 0.00 | 0.00 | 32 | 1023.3 |
| 20260510180027 | 67 | 20 | 8.0 | 14.0 | 0.00 | 0.00 | 0.00 | 32 | 1023.4 |
| 20260510175509 | 67 | 59 | 8.0 | 14.0 | 0.00 | 0.00 | 0.00 | 32 | 1023.5 |
| 20260510175008 | 67 | 52 | 8.0 | 13.0 | 0.00 | 0.00 | 0.00 | 35 | 1023.4 |
| 20260510174515 | 67 | 82 | 5.0 | 13.0 | 0.00 | 0.00 | 0.00 | 33 | 1023.4 |
| 20260510174009 | 66 | 60 | 6.0 | 13.0 | 0.00 | 0.00 | 0.00 | 33 | 1023.5 |
| 20260510173514 | 66 | 53 | 8.0 | 12.0 | 0.00 | 0.00 | 0.00 | 31 | 1023.4 |
| 20260510173020 | 66 | 55 | 5.0 | 12.0 | 0.00 | 0.00 | 0.00 | 33 | 1023.5 |
| 20260510172510 | 66 | 36 | 6.0 | 12.0 | 0.00 | 0.00 | 0.00 | 31 | 1023.5 |
| 20260510172012 | 66 | 34 | 2.0 | 11.0 | 0.00 | 0.00 | 0.00 | 36 | 1023.6 |
| 20260510171527 | 65 | 40 | 4.0 | 11.0 | 0.00 | 0.00 | 0.00 | 36 | 1023.7 |
| 20260510171009 | 64 | 86 | 2.0 | 9.0 | 0.00 | 0.00 | 0.00 | 36 | 1023.7 |
| 20260510170507 | 64 | 87 | 3.0 | 8.0 | 0.00 | 0.00 | 0.00 | 38 | 1023.8 |
| 20260510170026 | 63 | 88 | 1.0 | 13.0 | 0.00 | 0.00 | 0.00 | 40 | 1023.8 |
| 20260510165505 | 62 | 84 | 5.0 | 13.0 | 0.00 | 0.00 | 0.00 | 38 | 1023.9 |
| 20260510165004 | 62 | 121 | 3.0 | 11.0 | 0.00 | 0.00 | 0.00 | 38 | 1023.9 |
| 20260510164517 | 61 | 60 | 4.0 | 11.0 | 0.00 | 0.00 | 0.00 | 37 | 1023.9 |
| 20260510164012 | 61 | 57 | 5.0 | 12.0 | 0.00 | 0.00 | 0.00 | 37 | 1023.9 |
| 20260510163507 | 61 | 82 | 7.0 | 12.0 | 0.00 | 0.00 | 0.00 | 38 | 1023.9 |
| 20260510163023 | 60 | 97 | 3.0 | 9.0 | 0.00 | 0.00 | 0.00 | 41 | 1023.9 |
| 20260510162514 | 60 | 65 | 5.0 | 9.0 | 0.00 | 0.00 | 0.00 | 40 | 1023.8 |
| 20260510162009 | 59 | 85 | 3.0 | 7.0 | 0.00 | 0.00 | 0.00 | 43 | 1023.8 |
| 20260510161526 | 59 | 105 | 2.0 | 7.0 | 0.00 | 0.00 | 0.00 | 43 | 1023.7 |
| 20260510161010 | 59 | 82 | 2.0 | 7.0 | 0.00 | 0.00 | 0.00 | 44 | 1023.5 |
| 20260510160511 | 59 | 70 | 1.0 | 11.0 | 0.00 | 0.00 | 0.00 | 46 | 1023.7 |
| 20260510160013 | 59 | 91 | 3.0 | 11.0 | 0.00 | 0.00 | 0.00 | 45 | 1023.5 |
| 20260510155506 | 58 | 53 | 2.0 | 9.0 | 0.00 | 0.00 | 0.00 | 46 | 1023.2 |
| 20260510155008 | 58 | 78 | 3.0 | 9.0 | 0.00 | 0.00 | 0.00 | 46 | 1023.3 |
| 20260510154524 | 58 | 42 | 2.0 | 10.0 | 0.00 | 0.00 | 0.00 | 46 | 1023.3 |
| 20260510154008 | 58 | 96 | 3.0 | 10.0 | 0.00 | 0.00 | 0.00 | 45 | 1023.2 |
| 20260510153512 | 57 | 80 | 3.0 | 9.0 | 0.00 | 0.00 | 0.00 | 45 | 1023.2 |
| 20260510153023 | 57 | 90 | 3.0 | 10.0 | 0.00 | 0.00 | 0.00 | 47 | 1023.2 |
| 20260510152512 | 57 | 84 | 4.0 | 10.0 | 0.00 | 0.00 | 0.00 | 47 | 1023.0 |
| 20260510152011 | 57 | 61 | 5.0 | 7.0 | 0.00 | 0.00 | 0.00 | 47 | 1023.1 |
| 20260510151532 | 56 | 69 | 3.0 | 10.0 | 0.00 | 0.00 | 0.00 | 47 | 1023.1 |
| 20260510151010 | 56 | 101 | 4.0 | 10.0 | 0.00 | 0.00 | 0.00 | 46 | 1023.2 |
| 20260510150509 | 56 | 67 | 4.0 | 10.0 | 0.00 | 0.00 | 0.00 | 47 | 1023.4 |
| 20260510150018 | 56 | 87 | 3.0 | 10.0 | 0.00 | 0.00 | 0.00 | 45 | 1023.3 |
| 20260510145507 | 56 | 74 | 4.0 | 10.0 | 0.00 | 0.00 | 0.00 | 46 | 1023.2 |
| 20260510145007 | 56 | 94 | 3.0 | 9.0 | 0.00 | 0.00 | 0.00 | 45 | 1023.1 |
| 20260510144530 | 56 | 86 | 2.0 | 10.0 | 0.00 | 0.00 | 0.00 | 45 | 1023.1 |
| 20260510144008 | 56 | 42 | 4.0 | 10.0 | 0.00 | 0.00 | 0.00 | 46 | 1023.0 |
| 20260510143511 | 56 | 49 | 3.0 | 10.0 | 0.00 | 0.00 | 0.00 | 46 | 1022.9 |
| 20260510143029 | 56 | 58 | 3.0 | 10.0 | 0.00 | 0.00 | 0.00 | 48 | 1022.8 |
| 20260510142512 | 56 | 105 | 2.0 | 10.0 | 0.00 | 0.00 | 0.00 | 48 | 1022.8 |
| 20260510142013 | 56 | 101 | 3.0 | 11.0 | 0.00 | 0.00 | 0.00 | 48 | 1023.0 |
| 20260510141527 | 56 | 121 | 4.0 | 11.0 | 0.00 | 0.00 | 0.00 | 48 | 1022.8 |
| 20260510141009 | 56 | 63 | 6.0 | 13.0 | 0.00 | 0.00 | 0.00 | 50 | 1022.6 |
| 20260510140506 | 56 | 76 | 4.0 | 13.0 | 0.00 | 0.00 | 0.00 | 51 | 1022.6 |
| 20260510140020 | 56 | 36 | 6.0 | 12.0 | 0.00 | 0.00 | 0.00 | 50 | 1022.7 |
| 20260510135506 | 56 | 44 | 7.0 | 12.0 | 0.00 | 0.00 | 0.00 | 51 | 1022.3 |
| 20260510135007 | 56 | 58 | 6.0 | 12.0 | 0.00 | 0.00 | 0.00 | 54 | 1022.2 |
| 20260510134504 | 55 | 69 | 4.0 | 12.0 | 0.00 | 0.00 | 0.00 | 56 | 1022.2 |
| 20260510134003 | 55 | 42 | 7.0 | 13.0 | 0.00 | 0.00 | 0.00 | 55 | 1022.3 |
| 20260510133504 | 55 | 59 | 7.0 | 13.0 | 0.00 | 0.00 | 0.00 | 53 | 1022.2 |
| 20260510133008 | 55 | 51 | 6.0 | 13.0 | 0.00 | 0.00 | 0.00 | 54 | 1022.1 |
| 20260510132503 | 54 | 59 | 4.0 | 11.0 | 0.00 | 0.00 | 0.00 | 55 | 1022.0 |
| 20260510132007 | 54 | 54 | 4.0 | 11.0 | 0.00 | 0.00 | 0.00 | 55 | 1022.0 |
| 20260510131517 | 54 | 78 | 7.0 | 14.0 | 0.00 | 0.00 | 0.00 | 56 | 1021.9 |
| 20260510131009 | 54 | 42 | 7.0 | 14.0 | 0.00 | 0.00 | 0.00 | 56 | 1021.6 |
| 20260510130507 | 54 | 36 | 7.0 | 13.0 | 0.00 | 0.00 | 0.00 | 57 | 1021.6 |
| 20260510130021 | 53 | 71 | 7.0 | 13.0 | 0.00 | 0.00 | 0.00 | 58 | 1021.5 |
| 20260510125509 | 53 | 41 | 7.0 | 14.0 | 0.00 | 0.00 | 0.00 | 59 | 1021.5 |
| 20260510125007 | 53 | 48 | 7.0 | 14.0 | 0.00 | 0.00 | 0.00 | 59 | 1021.5 |
| 20260510124504 | 53 | 35 | 8.0 | 14.0 | 0.00 | 0.00 | 0.00 | 58 | 1021.4 |
| 20260510124004 | 53 | 42 | 7.0 | 13.0 | 0.00 | 0.00 | 0.00 | 59 | 1021.2 |
| 20260510123504 | 53 | 67 | 8.0 | 13.0 | 0.00 | 0.00 | 0.00 | 59 | 1021.0 |
| 20260510123011 | 53 | 64 | 6.0 | 13.0 | 0.00 | 0.00 | 0.00 | 60 | 1020.7 |
| 20260510122505 | 53 | 49 | 7.0 | 12.0 | 0.00 | 0.00 | 0.00 | 61 | 1020.6 |
| 20260510122007 | 53 | 65 | 7.0 | 12.0 | 0.00 | 0.00 | 0.00 | 63 | 1020.5 |
| 20260510121515 | 52 | 44 | 4.0 | 11.0 | 0.00 | 0.00 | 0.00 | 64 | 1020.3 |
| 20260510121007 | 52 | 22 | 6.0 | 11.0 | 0.00 | 0.00 | 0.00 | 64 | 1020.2 |
| 20260510120508 | 52 | 63 | 4.0 | 7.0 | 0.00 | 0.00 | 0.00 | 66 | 1020.3 |
| 20260510120033 | 52 | 55 | 2.0 | 8.0 | 0.00 | 0.00 | 0.00 | 66 | 1020.2 |
| 20260510115511 | 52 | 49 | 3.0 | 8.0 | 0.00 | 0.00 | 0.00 | 66 | 1020.1 |
| 20260510115003 | 52 | 31 | 3.0 | 8.0 | 0.00 | 0.00 | 0.00 | 67 | 1019.9 |
| 20260510114508 | 53 | 33 | 2.0 | 5.0 | 0.00 | 0.00 | 0.00 | 68 | 1019.7 |
| 20260510114006 | 53 | 32 | 2.0 | 8.0 | 0.00 | 0.00 | 0.00 | 69 | 1019.7 |
| 20260510113507 | 53 | 44 | 4.0 | 8.0 | 0.00 | 0.00 | 0.00 | 69 | 1019.9 |
| 20260510113014 | 53 | 34 | 2.0 | 5.0 | 0.00 | 0.00 | 0.00 | 69 | 1019.8 |
| 20260510112511 | 54 | 345 | 3.0 | 9.0 | 0.00 | 0.00 | 0.00 | 68 | 1019.9 |
| 20260510112007 | 54 | 352 | 4.0 | 10.0 | 0.00 | 0.00 | 0.00 | 66 | 1019.5 |
| 20260510111517 | 54 | 51 | 5.0 | 10.0 | 0.00 | 0.00 | 0.00 | 66 | 1019.4 |
| 20260510111007 | 54 | 360 | 4.0 | 10.0 | 0.00 | 0.00 | 0.00 | 67 | 1019.6 |
| 20260510110508 | 55 | 329 | 6.0 | 10.0 | 0.00 | 0.00 | 0.00 | 67 | 1019.6 |
| 20260510110030 | 55 | 360 | 3.0 | 11.0 | 0.00 | 0.00 | 0.00 | 65 | 1019.3 |
| 20260510105503 | 55 | 50 | 5.0 | 13.0 | 0.00 | 0.00 | 0.00 | 65 | 1018.7 |
| 20260510105004 | 55 | 93 | 4.0 | 13.0 | 0.00 | 0.00 | 0.00 | 64 | 1018.5 |
| 20260510104513 | 55 | 134 | 4.0 | 12.0 | 0.00 | 0.00 | 0.00 | 64 | 1018.2 |
| 20260510104007 | 54 | 66 | 3.0 | 12.0 | 0.00 | 0.00 | 0.00 | 65 | 1018.1 |
| 20260510103506 | 54 | 30 | 8.0 | 14.0 | 0.00 | 0.00 | 0.00 | 66 | 1018.1 |
| 20260510103018 | 54 | 49 | 6.0 | 14.0 | 0.00 | 0.00 | 0.00 | 67 | 1018.2 |
| 20260510102508 | 54 | 42 | 4.0 | 12.0 | 0.00 | 0.00 | 0.00 | 67 | 1018.3 |
| 20260510102006 | 54 | 342 | 7.0 | 12.0 | 0.00 | 0.00 | 0.00 | 67 | 1018.3 |
| 20260510101524 | 55 | 51 | 8.0 | 13.0 | 0.00 | 0.00 | 0.00 | 67 | 1017.5 |
| 20260510101006 | 55 | 105 | 4.0 | 17.0 | 0.00 | 0.00 | 0.00 | 65 | 1017.0 |
| 20260510100507 | 56 | 98 | 9.0 | 17.0 | 0.00 | 0.00 | 0.00 | 63 | 1017.4 |
| 20260510100028 | 56 | 46 | 6.0 | 14.0 | 0.00 | 0.00 | 0.00 | 59 | 1017.5 |
| 20260510095503 | 56 | 45 | 5.0 | 15.0 | 0.00 | 0.00 | 0.00 | 58 | 1017.4 |
| 20260510095003 | 57 | 49 | 10.0 | 15.0 | 0.00 | 0.00 | 0.00 | 57 | 1017.4 |
| 20260510094525 | 57 | 72 | 7.0 | 14.0 | 0.00 | 0.00 | 0.00 | 57 | 1017.5 |
| 20260510094007 | 57 | 36 | 5.0 | 12.0 | 0.00 | 0.00 | 0.00 | 57 | 1017.6 |
| 20260510093506 | 57 | 56 | 5.0 | 14.0 | 0.00 | 0.00 | 0.00 | 56 | 1017.4 |
| 20260510093021 | 57 | 40 | 6.0 | 14.0 | 0.00 | 0.00 | 0.00 | 56 | 1017.5 |
| 20260510092507 | 57 | 63 | 4.0 | 13.0 | 0.00 | 0.00 | 0.00 | 55 | 1017.6 |
| 20260510092012 | 57 | 64 | 10.0 | 13.0 | 0.00 | 0.00 | 0.00 | 55 | 1017.6 |
| 20260510091526 | 57 | 46 | 9.0 | 17.0 | 0.00 | 0.00 | 0.00 | 55 | 1017.6 |
| 20260510091007 | 57 | 55 | 10.0 | 17.0 | 0.00 | 0.00 | 0.00 | 55 | 1017.5 |
| 20260510090509 | 57 | 36 | 7.0 | 17.0 | 0.00 | 0.00 | 0.00 | 55 | 1017.5 |
| 20260510090010 | 57 | 53 | 7.0 | 17.0 | 0.00 | 0.00 | 0.00 | 55 | 1017.8 |
| 20260510085503 | 57 | 32 | 5.0 | 15.0 | 0.00 | 0.00 | 0.00 | 56 | 1017.9 |
| 20260510085003 | 57 | 22 | 8.0 | 15.0 | 0.00 | 0.00 | 0.00 | 57 | 1017.9 |
| 20260510084517 | 57 | 333 | 6.0 | 15.0 | 0.00 | 0.00 | 0.00 | 57 | 1017.8 |
| 20260510084007 | 57 | 346 | 7.0 | 15.0 | 0.00 | 0.00 | 0.00 | 58 | 1017.8 |
| 20260510083509 | 58 | 331 | 8.0 | 14.0 | 0.00 | 0.00 | 0.00 | 59 | 1017.8 |
| 20260510083022 | 58 | 12 | 8.0 | 17.0 | 0.00 | 0.00 | 0.00 | 60 | 1017.7 |
| 20260510082506 | 58 | 352 | 9.0 | 17.0 | 0.00 | 0.00 | 0.00 | 62 | 1017.8 |
| 20260510082011 | 58 | 15 | 7.0 | 12.0 | 0.00 | 0.00 | 0.00 | 62 | 1017.8 |
| 20260510081527 | 58 | 19 | 7.0 | 14.0 | 0.00 | 0.00 | 0.00 | 63 | 1017.9 |
| 20260510081009 | 58 | 5 | 8.0 | 14.0 | 0.00 | 0.00 | 0.00 | 64 | 1018.0 |
| 20260510080011 | 58 | 351 | 6.0 | 13.0 | 0.00 | 0.00 | 0.00 | 64 | 1018.0 |
| 20260510075507 | 57 | 360 | 8.0 | 13.0 | 0.00 | 0.00 | 0.00 | 64 | 1018.0 |
| 20260510075005 | 57 | 338 | 7.0 | 12.0 | 0.00 | 0.00 | 0.00 | 65 | 1017.8 |
| 20260510074520 | 57 | 360 | 6.0 | 12.0 | 0.00 | 0.00 | 0.00 | 65 | 1017.6 |
| 20260510074006 | 57 | 331 | 4.0 | 11.0 | 0.00 | 0.00 | 0.00 | 65 | 1017.5 |
| 20260510073508 | 57 | 334 | 5.0 | 11.0 | 0.00 | 0.00 | 0.00 | 65 | 1017.4 |
| 20260510073022 | 57 | 342 | 3.0 | 9.0 | 0.00 | 0.00 | 0.00 | 64 | 1017.3 |
| 20260510072507 | 57 | 50 | 3.0 | 10.0 | 0.00 | 0.00 | 0.00 | 64 | 1017.1 |
| 20260510072010 | 57 | 23 | 4.0 | 10.0 | 0.00 | 0.00 | 0.00 | 64 | 1017.1 |
| 20260510071528 | 57 | 26 | 4.0 | 9.0 | 0.00 | 0.00 | 0.00 | 64 | 1017.0 |
| 20260510071009 | 58 | 11 | 4.0 | 12.0 | 0.00 | 0.00 | 0.00 | 64 | 1017.1 |
| 20260510070506 | 58 | 37 | 4.0 | 12.0 | 0.00 | 0.00 | 0.00 | 63 | 1017.0 |
| 20260510070016 | 58 | 31 | 3.0 | 8.0 | 0.00 | 0.00 | 0.00 | 63 | 1016.9 |
| 20260510065506 | 58 | 360 | 4.0 | 8.0 | 0.00 | 0.00 | 0.00 | 63 | 1017.0 |
| 20260510065007 | 58 | 349 | 3.0 | 12.0 | 0.00 | 0.00 | 0.00 | 62 | 1016.8 |
| 20260510064521 | 59 | 46 | 4.0 | 12.0 | 0.00 | 0.00 | 0.00 | 62 | 1016.8 |
| 20260510064012 | 59 | 51 | 6.0 | 12.0 | 0.00 | 0.00 | 0.00 | 61 | 1016.7 |
| 20260510063508 | 59 | 17 | 5.0 | 10.0 | 0.00 | 0.00 | 0.00 | 61 | 1016.6 |
| 20260510063027 | 59 | 13 | 4.0 | 10.0 | 0.00 | 0.00 | 0.00 | 61 | 1016.6 |
| 20260510062510 | 59 | 24 | 5.0 | 10.0 | 0.00 | 0.00 | 0.00 | 61 | 1016.5 |
| 20260510062010 | 59 | 13 | 5.0 | 10.0 | 0.00 | 0.00 | 0.00 | 61 | 1016.4 |
| 20260510061531 | 60 | 72 | 3.0 | 11.0 | 0.00 | 0.00 | 0.00 | 61 | 1016.1 |
| 20260510061013 | 60 | 40 | 6.0 | 11.0 | 0.00 | 0.00 | 0.00 | 61 | 1015.9 |
| 20260510060506 | 60 | 24 | 5.0 | 11.0 | 0.00 | 0.00 | 0.00 | 61 | 1015.8 |
| 20260510060039 | 60 | 28 | 5.0 | 11.0 | 0.00 | 0.00 | 0.00 | 61 | 1015.6 |
| 20260510055506 | 60 | 32 | 5.0 | 11.0 | 0.00 | 0.00 | 0.00 | 61 | 1015.6 |
| 20260510055006 | 61 | 42 | 4.0 | 10.0 | 0.00 | 0.00 | 0.00 | 60 | 1015.5 |
| 20260510054522 | 61 | 56 | 5.0 | 10.0 | 0.00 | 0.00 | 0.00 | 60 | 1015.5 |
| 20260510054008 | 61 | 45 | 5.0 | 10.0 | 0.00 | 0.00 | 0.00 | 59 | 1015.4 |
| 20260510053507 | 62 | 55 | 5.0 | 13.0 | 0.00 | 0.00 | 0.00 | 58 | 1015.4 |
| 20260510053028 | 62 | 24 | 6.0 | 13.0 | 0.00 | 0.00 | 0.00 | 58 | 1015.2 |
| 20260510052512 | 62 | 37 | 7.0 | 14.0 | 0.00 | 0.00 | 0.00 | 57 | 1015.1 |
| 20260510052009 | 62 | 55 | 6.0 | 14.0 | 0.00 | 0.00 | 0.00 | 57 | 1015.0 |
| 20260510051528 | 62 | 51 | 5.0 | 12.0 | 0.00 | 0.00 | 0.00 | 57 | 1014.9 |
| 20260510051011 | 62 | 58 | 5.0 | 11.0 | 0.00 | 0.00 | 0.00 | 57 | 1014.7 |
| 20260510050508 | 62 | 43 | 4.0 | 11.0 | 0.00 | 0.00 | 0.00 | 57 | 1014.6 |
| 20260510050021 | 63 | 51 | 7.0 | 12.0 | 0.00 | 0.00 | 0.00 | 56 | 1014.5 |
| 20260510045507 | 63 | 77 | 7.0 | 12.0 | 0.00 | 0.00 | 0.00 | 56 | 1014.5 |
| 20260510045010 | 63 | 53 | 6.0 | 11.0 | 0.00 | 0.00 | 0.00 | 57 | 1014.4 |
| 20260510044527 | 63 | 57 | 4.0 | 10.0 | 0.00 | 0.00 | 0.00 | 58 | 1014.4 |
| 20260510044012 | 63 | 61 | 5.0 | 11.0 | 0.00 | 0.00 | 0.00 | 58 | 1014.4 |
| 20260510043506 | 63 | 85 | 4.0 | 11.0 | 0.00 | 0.00 | 0.00 | 58 | 1014.3 |
| 20260510043026 | 63 | 52 | 4.0 | 12.0 | 0.00 | 0.00 | 0.00 | 59 | 1014.2 |
| 20260510042511 | 63 | 66 | 5.0 | 12.0 | 0.00 | 0.00 | 0.00 | 59 | 1014.1 |
| 20260510042010 | 63 | 57 | 5.0 | 9.0 | 0.00 | 0.00 | 0.00 | 59 | 1013.9 |
| 20260510041530 | 63 | 57 | 5.0 | 9.0 | 0.00 | 0.00 | 0.00 | 60 | 1013.9 |
| 20260510041007 | 63 | 38 | 3.0 | 11.0 | 0.00 | 0.00 | 0.00 | 60 | 1013.7 |
| 20260510040506 | 63 | 73 | 5.0 | 11.0 | 0.00 | 0.00 | 0.00 | 61 | 1013.7 |
| 20260510040024 | 63 | 36 | 5.0 | 13.0 | 0.00 | 0.00 | 0.00 | 61 | 1013.8 |
| 20260510035507 | 63 | 17 | 7.0 | 13.0 | 0.00 | 0.00 | 0.00 | 61 | 1013.9 |
| 20260510035013 | 63 | 32 | 9.0 | 16.0 | 0.00 | 0.00 | 0.00 | 61 | 1013.7 |
| 20260510034526 | 63 | 75 | 8.0 | 16.0 | 0.00 | 0.00 | 0.00 | 62 | 1013.3 |
| 20260510034010 | 63 | 56 | 5.0 | 12.0 | 0.00 | 0.00 | 0.00 | 62 | 1013.0 |
| 20260510033506 | 63 | 57 | 7.0 | 15.0 | 0.00 | 0.00 | 0.00 | 62 | 1012.8 |
| 20260510033027 | 64 | 51 | 6.0 | 15.0 | 0.00 | 0.00 | 0.00 | 62 | 1012.7 |
| 20260510032511 | 64 | 36 | 7.0 | 15.0 | 0.00 | 0.00 | 0.00 | 62 | 1012.7 |
| 20260510032006 | 64 | 32 | 7.0 | 14.0 | 0.00 | 0.00 | 0.00 | 61 | 1012.6 |
| 20260510031517 | 64 | 55 | 7.0 | 14.0 | 0.00 | 0.00 | 0.00 | 61 | 1012.5 |
| 20260510031009 | 64 | 70 | 7.0 | 14.0 | 0.00 | 0.00 | 0.00 | 61 | 1012.3 |
| 20260510030507 | 64 | 46 | 4.0 | 12.0 | 0.00 | 0.00 | 0.00 | 61 | 1012.3 |
| 20260510030003 | 64 | 74 | 4.0 | 14.0 | 0.00 | 0.00 | 0.00 | 61 | 1012.2 |
| 20260510025504 | 64 | 46 | 4.0 | 14.0 | 0.00 | 0.00 | 0.00 | 61 | 1012.0 |
| 20260510025005 | 64 | 91 | 6.0 | 13.0 | 0.00 | 0.00 | 0.00 | 61 | 1011.9 |
| 20260510024506 | 64 | 70 | 5.0 | 14.0 | 0.00 | 0.00 | 0.00 | 61 | 1011.8 |
| 20260510024003 | 64 | 112 | 3.0 | 14.0 | 0.00 | 0.00 | 0.00 | 61 | 1011.8 |
| 20260510023506 | 64 | 84 | 4.0 | 12.0 | 0.00 | 0.00 | 0.00 | 61 | 1011.5 |
| 20260510023027 | 64 | 61 | 4.0 | 14.0 | 0.00 | 0.00 | 0.00 | 61 | 1011.3 |
| 20260510022507 | 64 | 51 | 5.0 | 14.0 | 0.00 | 0.00 | 0.00 | 60 | 1011.2 |
| 20260510022008 | 65 | 76 | 6.0 | 13.0 | 0.00 | 0.00 | 0.00 | 60 | 1011.1 |
| 20260510021519 | 65 | 84 | 7.0 | 11.0 | 0.00 | 0.00 | 0.00 | 59 | 1011.1 |
| 20260510021007 | 65 | 56 | 5.0 | 12.0 | 0.00 | 0.00 | 0.00 | 59 | 1010.8 |
| 20260510020508 | 65 | 55 | 4.0 | 12.0 | 0.00 | 0.00 | 0.00 | 59 | 1010.6 |
| 20260510020004 | 65 | 71 | 3.0 | 12.0 | 0.00 | 0.00 | 0.00 | 59 | 1010.4 |
| 20260510015504 | 65 | 44 | 5.0 | 12.0 | 0.00 | 0.00 | 0.00 | 59 | 1010.2 |
| 20260510015003 | 66 | 97 | 5.0 | 11.0 | 0.00 | 0.00 | 0.00 | 59 | 1009.9 |
| 20260510014507 | 66 | 69 | 5.0 | 13.0 | 0.00 | 0.00 | 0.00 | 58 | 1009.9 |
| 20260510014006 | 67 | 78 | 4.0 | 13.0 | 0.00 | 0.00 | 0.00 | 57 | 1009.8 |
| 20260510013510 | 67 | 75 | 5.0 | 16.0 | 0.00 | 0.00 | 0.00 | 56 | 1009.7 |
| 20260510013016 | 68 | 42 | 5.0 | 16.0 | 0.00 | 0.00 | 0.00 | 54 | 1009.6 |
| 20260510012506 | 68 | 73 | 6.0 | 16.0 | 0.00 | 0.00 | 0.00 | 51 | 1009.5 |
| 20260510012007 | 69 | 48 | 5.0 | 14.0 | 0.00 | 0.00 | 0.00 | 51 | 1009.4 |
| 20260510011525 | 69 | 57 | 6.0 | 15.0 | 0.00 | 0.00 | 0.00 | 50 | 1009.5 |
| 20260510011012 | 70 | 69 | 6.0 | 15.0 | 0.00 | 0.00 | 0.00 | 50 | 1009.3 |
| 20260510010504 | 70 | 88 | 3.0 | 10.0 | 0.00 | 0.00 | 0.00 | 50 | 1009.2 |
| 20260510010011 | 70 | 56 | 4.0 | 10.0 | 0.00 | 0.00 | 0.00 | 50 | 1009.1 |
| 20260510005507 | 70 | 101 | 4.0 | 11.0 | 0.00 | 0.00 | 0.00 | 50 | 1008.8 |
| 20260510005005 | 70 | 87 | 4.0 | 16.0 | 0.00 | 0.00 | 0.00 | 50 | 1008.9 |
| 20260510004513 | 71 | 106 | 5.0 | 16.0 | 0.00 | 0.00 | 0.00 | 49 | 1008.7 |
| 20260510004004 | 71 | 40 | 3.0 | 16.0 | 0.00 | 0.00 | 0.00 | 51 | 1008.6 |
| 20260510003508 | 71 | 98 | 4.0 | 15.0 | 0.00 | 0.00 | 0.00 | 50 | 1009.0 |
| 20260510003020 | 71 | 93 | 7.0 | 15.0 | 0.00 | 0.00 | 0.00 | 1009.4 | |
| 20260510002508 | 71 | 94 | 6.0 | 20.0 | 0.00 | 0.00 | 0.00 | 49 | 1009.4 |
| 20260510002006 | 71 | 74 | 9.0 | 23.0 | 0.00 | 0.00 | 0.00 | 49 | 1009.2 |
| 20260510001523 | 72 | 86 | 12.0 | 23.0 | 0.00 | 0.00 | 0.00 | 47 | 1009.0 |
| 20260510001009 | 74 | 69 | 13.0 | 25.0 | 0.00 | 0.00 | 0.00 | 45 | 1008.8 |
| 20260510000505 | 74 | 88 | 15.0 | 25.0 | 0.00 | 0.00 | 0.00 | 40 | 1008.7 |
| 20260510000008 | 75 | 36 | 12.0 | 21.0 | 0.00 | 0.00 | 0.00 | 40 | 1009.0 |
| 20260509235503 | 75 | 20 | 10.0 | 16.0 | 0.00 | 0.00 | 0.00 | 40 | 1009.1 |